| time (UTC) | temp F | wind direction | speed MPH | gust MPH | rain 1hr in | rain 24hr in | rain mn in | humidity % | barometer mb |
| 20260906060807 | 83 | 194 | 5.0 | 5.0 | 0.00 | 0.00 | 0.00 | 74 | 982.5 |
| 20260906060306 | 82 | 184 | 4.0 | 4.0 | 0.00 | 0.00 | 0.00 | 75 | 982.4 |
| 20260906055807 | 82 | 176 | 4.0 | 4.0 | 0.00 | 0.00 | 0.00 | 75 | 982.5 |
| 20260906055308 | 83 | 179 | 5.0 | 5.0 | 0.00 | 0.00 | 0.00 | 74 | 982.6 |
| 20260906054806 | 83 | 179 | 5.0 | 5.0 | 0.00 | 0.00 | 0.00 | 74 | 982.6 |
| 20260906054307 | 83 | 182 | 4.0 | 4.0 | 0.00 | 0.00 | 0.00 | 74 | 982.5 |
| 20260906053807 | 83 | 196 | 4.0 | 4.0 | 0.00 | 0.00 | 0.00 | 74 | 982.7 |
| 20260906053308 | 83 | 174 | 6.0 | 6.0 | 0.00 | 0.00 | 0.00 | 74 | 982.9 |
| 20260906052806 | 83 | 165 | 4.0 | 4.0 | 0.00 | 0.00 | 0.00 | 74 | 982.8 |
| 20260906052307 | 83 | 152 | 5.0 | 5.0 | 0.00 | 0.00 | 0.00 | 73 | 982.9 |
| 20260906051807 | 83 | 159 | 5.0 | 5.0 | 0.00 | 0.00 | 0.00 | 72 | 982.9 |
| 20260906051307 | 84 | 153 | 7.0 | 7.0 | 0.00 | 0.00 | 0.00 | 72 | 983.0 |
| 20260906050807 | 84 | 150 | 4.0 | 4.0 | 0.00 | 0.00 | 0.00 | 71 | 983.2 |
| 20260906050306 | 84 | 150 | 3.0 | 3.0 | 0.00 | 0.00 | 0.00 | 71 | 983.1 |
| 20260906045807 | 84 | 146 | 4.0 | 4.0 | 0.00 | 0.00 | 0.00 | 70 | 983.1 |
| 20260906045307 | 85 | 166 | 4.0 | 4.0 | 0.00 | 0.00 | 0.00 | 69 | 983.0 |
| 20260906044807 | 85 | 152 | 6.0 | 6.0 | 0.00 | 0.00 | 0.00 | 69 | 983.1 |
| 20260906044307 | 84 | 152 | 4.0 | 4.0 | 0.00 | 0.00 | 0.00 | 70 | 983.2 |
| 20260906043808 | 88 | 175 | 8.0 | 8.0 | 0.00 | 0.00 | 0.00 | 63 | 983.0 |
| 20260906043307 | 88 | 31 | 3.0 | 3.0 | 0.00 | 0.00 | 0.00 | 64 | 983.0 |
| 20260906042807 | 88 | 20 | 4.0 | 4.0 | 0.00 | 0.00 | 0.00 | 64 | 983.0 |
| 20260906042307 | 88 | 28 | 3.0 | 3.0 | 0.00 | 0.00 | 0.00 | 62 | 983.1 |
| 20260906041807 | 89 | 11 | 3.0 | 3.0 | 0.00 | 0.00 | 0.00 | 61 | 983.0 |
| 20260906041307 | 90 | 0.0 | 0.0 | 0.00 | 0.00 | 0.00 | 59 | 983.1 | |
| 20260906040807 | 90 | 0.0 | 0.0 | 0.00 | 0.00 | 0.00 | 58 | 983.1 | |
| 20260906040307 | 91 | 0.0 | 0.0 | 0.00 | 0.00 | 0.00 | 58 | 983.1 | |
| 20260906035807 | 90 | 0.0 | 0.0 | 0.00 | 0.00 | 0.00 | 56 | 983.0 | |
| 20260906035307 | 90 | 0.0 | 0.0 | 0.00 | 0.00 | 0.00 | 57 | 983.0 | |
| 20260906034806 | 90 | 0.0 | 0.0 | 0.00 | 0.00 | 0.00 | 58 | 982.9 | |
| 20260906034306 | 90 | 0.0 | 0.0 | 0.00 | 0.00 | 0.00 | 59 | 983.1 | |
| 20260906033806 | 90 | 0.0 | 0.0 | 0.00 | 0.00 | 0.00 | 59 | 983.0 | |
| 20260906033307 | 90 | 340 | 1.0 | 1.0 | 0.00 | 0.00 | 0.00 | 59 | 983.1 |
| 20260906032806 | 90 | 326 | 2.0 | 2.0 | 0.00 | 0.00 | 0.00 | 58 | 983.1 |
| 20260906032307 | 90 | 322 | 2.0 | 2.0 | 0.00 | 0.00 | 0.00 | 59 | 983.1 |
| 20260906031806 | 90 | 322 | 2.0 | 2.0 | 0.00 | 0.00 | 0.00 | 60 | 983.1 |
| 20260906031307 | 90 | 322 | 2.0 | 2.0 | 0.00 | 0.00 | 0.00 | 60 | 982.9 |
| 20260906030806 | 90 | 320 | 3.0 | 3.0 | 0.00 | 0.00 | 0.00 | 59 | 982.8 |
| 20260906030307 | 90 | 320 | 3.0 | 3.0 | 0.00 | 0.00 | 0.00 | 60 | 982.7 |
| 20260906025807 | 90 | 332 | 2.0 | 2.0 | 0.00 | 0.00 | 0.00 | 60 | 982.7 |
| 20260906025306 | 90 | 335 | 2.0 | 2.0 | 0.00 | 0.00 | 0.00 | 60 | 982.7 |
| 20260906024806 | 90 | 4 | 1.0 | 1.0 | 0.00 | 0.00 | 0.00 | 59 | 982.7 |
| 20260906024306 | 90 | 4 | 2.0 | 2.0 | 0.00 | 0.00 | 0.00 | 59 | 982.7 |
| 20260906023807 | 90 | 2 | 3.0 | 3.0 | 0.00 | 0.00 | 0.00 | 59 | 982.7 |
| 20260906023306 | 91 | 4 | 2.0 | 2.0 | 0.00 | 0.00 | 0.00 | 58 | 982.5 |
| 20260906022807 | 91 | 9 | 2.0 | 2.0 | 0.00 | 0.00 | 0.00 | 58 | 982.3 |
| 20260906022307 | 91 | 9 | 2.0 | 2.0 | 0.00 | 0.00 | 0.00 | 58 | 982.4 |
| 20260906021807 | 91 | 9 | 1.0 | 1.0 | 0.00 | 0.00 | 0.00 | 58 | 982.4 |
| 20260906021307 | 91 | 10 | 1.0 | 1.0 | 0.00 | 0.00 | 0.00 | 58 | 982.2 |
| 20260906020806 | 91 | 9 | 2.0 | 2.0 | 0.00 | 0.00 | 0.00 | 58 | 982.3 |
| 20260906020306 | 91 | 10 | 2.0 | 2.0 | 0.00 | 0.00 | 0.00 | 58 | 982.2 |
| 20260906015807 | 91 | 18 | 2.0 | 2.0 | 0.00 | 0.00 | 0.00 | 57 | 982.2 |
| 20260906015306 | 91 | 18 | 2.0 | 2.0 | 0.00 | 0.00 | 0.00 | 58 | 982.1 |
| 20260906014806 | 91 | 19 | 2.0 | 2.0 | 0.00 | 0.00 | 0.00 | 58 | 982.1 |
| 20260906014305 | 91 | 18 | 1.0 | 1.0 | 0.00 | 0.00 | 0.00 | 58 | 982.2 |
| 20260906013807 | 91 | 23 | 2.0 | 2.0 | 0.00 | 0.00 | 0.00 | 58 | 982.2 |
| 20260906013306 | 91 | 23 | 2.0 | 2.0 | 0.00 | 0.00 | 0.00 | 58 | 982.3 |
| 20260906012807 | 91 | 17 | 2.0 | 2.0 | 0.00 | 0.00 | 0.00 | 58 | 982.2 |
| 20260906012306 | 91 | 354 | 3.0 | 3.0 | 0.00 | 0.00 | 0.00 | 58 | 982.3 |
| 20260906011806 | 91 | 346 | 2.0 | 2.0 | 0.00 | 0.00 | 0.00 | 58 | 982.1 |
| 20260906011306 | 91 | 346 | 2.0 | 2.0 | 0.00 | 0.00 | 0.00 | 58 | 982.0 |
| 20260906010806 | 91 | 316 | 2.0 | 2.0 | 0.00 | 0.00 | 0.00 | 57 | 981.9 |
| 20260906010307 | 91 | 291 | 2.0 | 2.0 | 0.00 | 0.00 | 0.00 | 58 | 981.7 |
| 20260906005807 | 91 | 301 | 2.0 | 2.0 | 0.00 | 0.00 | 0.00 | 58 | 981.7 |
| 20260906005307 | 91 | 301 | 2.0 | 2.0 | 0.00 | 0.00 | 0.00 | 58 | 981.7 |
| 20260906004807 | 91 | 23 | 1.0 | 1.0 | 0.00 | 0.00 | 0.00 | 57 | 981.7 |
| 20260906004307 | 91 | 37 | 1.0 | 1.0 | 0.00 | 0.00 | 0.00 | 56 | 981.7 |
| 20260906003806 | 91 | 35 | 1.0 | 1.0 | 0.00 | 0.00 | 0.00 | 57 | 981.6 |
| 20260906003307 | 91 | 25 | 2.0 | 2.0 | 0.00 | 0.00 | 0.00 | 57 | 981.7 |
| 20260906002806 | 91 | 30 | 2.0 | 2.0 | 0.00 | 0.00 | 0.00 | 57 | 981.6 |
| 20260906002306 | 92 | 17 | 1.0 | 1.0 | 0.00 | 0.00 | 0.00 | 56 | 981.8 |
| 20260906001806 | 92 | 9 | 1.0 | 1.0 | 0.00 | 0.00 | 0.00 | 56 | 981.8 |
| 20260906001307 | 92 | 358 | 4.0 | 4.0 | 0.00 | 0.00 | 0.00 | 55 | 981.7 |
| 20260906000806 | 92 | 352 | 5.0 | 5.0 | 0.00 | 0.00 | 0.00 | 55 | 981.7 |
| 20260906000306 | 93 | 342 | 4.0 | 4.0 | 0.00 | 0.00 | 0.00 | 54 | 981.9 |
| 20260905235807 | 93 | 6 | 4.0 | 4.0 | 0.00 | 0.00 | 0.00 | 52 | 981.8 |
| 20260905235307 | 94 | 27 | 4.0 | 4.0 | 0.00 | 0.00 | 0.00 | 52 | 981.9 |
| 20260905234806 | 94 | 13 | 4.0 | 4.0 | 0.00 | 0.00 | 0.00 | 51 | 981.9 |
| 20260905234307 | 94 | 19 | 3.0 | 3.0 | 0.00 | 0.00 | 0.00 | 50 | 981.8 |
| 20260905233806 | 95 | 15 | 2.0 | 2.0 | 0.00 | 0.00 | 0.00 | 50 | 981.9 |
| 20260905233307 | 95 | 44 | 3.0 | 3.0 | 0.00 | 0.00 | 0.00 | 49 | 981.8 |
| 20260905232806 | 95 | 56 | 3.0 | 3.0 | 0.00 | 0.00 | 0.00 | 49 | 981.8 |
| 20260905232306 | 95 | 54 | 4.0 | 4.0 | 0.00 | 0.00 | 0.00 | 50 | 981.9 |
| 20260905231806 | 95 | 30 | 4.0 | 4.0 | 0.00 | 0.00 | 0.00 | 49 | 981.8 |
| 20260905231307 | 95 | 12 | 5.0 | 5.0 | 0.00 | 0.00 | 0.00 | 49 | 981.7 |
| 20260905230806 | 95 | 30 | 5.0 | 5.0 | 0.00 | 0.00 | 0.00 | 48 | 981.8 |
| 20260905230306 | 96 | 25 | 5.0 | 5.0 | 0.00 | 0.00 | 0.00 | 48 | 981.8 |
| 20260905225807 | 95 | 15 | 2.0 | 2.0 | 0.00 | 0.00 | 0.00 | 48 | 981.9 |
| 20260905225307 | 95 | 69 | 3.0 | 3.0 | 0.00 | 0.00 | 0.00 | 48 | 981.7 |
| 20260905224807 | 96 | 350 | 5.0 | 5.0 | 0.00 | 0.00 | 0.00 | 47 | 981.7 |
| 20260905224306 | 96 | 11 | 2.0 | 2.0 | 0.00 | 0.00 | 0.00 | 47 | 981.6 |
| 20260905223807 | 96 | 60 | 3.0 | 3.0 | 0.00 | 0.00 | 0.00 | 46 | 981.6 |
| 20260905223306 | 96 | 71 | 3.0 | 3.0 | 0.00 | 0.00 | 0.00 | 45 | 981.6 |
| 20260905222807 | 96 | 67 | 1.0 | 1.0 | 0.00 | 0.00 | 0.00 | 45 | 981.7 |
| 20260905222307 | 96 | 50 | 2.0 | 2.0 | 0.00 | 0.00 | 0.00 | 46 | 981.6 |
| 20260905221806 | 96 | 63 | 5.0 | 5.0 | 0.00 | 0.00 | 0.00 | 46 | 981.6 |
| 20260905221307 | 96 | 60 | 2.0 | 2.0 | 0.00 | 0.00 | 0.00 | 46 | 981.7 |
| 20260905220806 | 96 | 23 | 3.0 | 3.0 | 0.00 | 0.00 | 0.00 | 46 | 981.7 |
| 20260905220306 | 97 | 59 | 7.0 | 7.0 | 0.00 | 0.00 | 0.00 | 46 | 981.6 |
| 20260905215807 | 97 | 21 | 5.0 | 5.0 | 0.00 | 0.00 | 0.00 | 45 | 981.7 |
| 20260905215307 | 97 | 100 | 3.0 | 3.0 | 0.00 | 0.00 | 0.00 | 46 | 981.7 |
| 20260905214807 | 96 | 0.0 | 0.0 | 0.00 | 0.00 | 0.00 | 46 | 981.7 | |
| 20260905214307 | 96 | 7 | 2.0 | 2.0 | 0.00 | 0.00 | 0.00 | 46 | 981.7 |
| 20260905213806 | 97 | 33 | 2.0 | 2.0 | 0.00 | 0.00 | 0.00 | 45 | 981.7 |
| 20260905213306 | 96 | 166 | 2.0 | 2.0 | 0.00 | 0.00 | 0.00 | 46 | 981.9 |
| 20260905212807 | 96 | 99 | 4.0 | 4.0 | 0.00 | 0.00 | 0.00 | 48 | 981.8 |
| 20260905212307 | 96 | 108 | 2.0 | 2.0 | 0.00 | 0.00 | 0.00 | 47 | 982.0 |
| 20260905211807 | 96 | 63 | 5.0 | 5.0 | 0.00 | 0.00 | 0.00 | 47 | 982.1 |
| 20260905211306 | 96 | 60 | 0.0 | 0.0 | 0.00 | 0.00 | 0.00 | 48 | 982.0 |
| 20260905210806 | 96 | 9 | 1.0 | 1.0 | 0.00 | 0.00 | 0.00 | 49 | 982.1 |
| 20260905210306 | 95 | 56 | 2.0 | 2.0 | 0.00 | 0.00 | 0.00 | 49 | 982.1 |
| 20260905205807 | 95 | 87 | 6.0 | 6.0 | 0.00 | 0.00 | 0.00 | 50 | 982.2 |
| 20260905205307 | 95 | 44 | 4.0 | 4.0 | 0.00 | 0.00 | 0.00 | 50 | 982.3 |
| 20260905204807 | 95 | 46 | 5.0 | 5.0 | 0.00 | 0.00 | 0.00 | 50 | 982.5 |
| 20260905204306 | 95 | 66 | 2.0 | 2.0 | 0.00 | 0.00 | 0.00 | 49 | 982.3 |
| 20260905203807 | 95 | 108 | 4.0 | 4.0 | 0.00 | 0.00 | 0.00 | 49 | 982.4 |
| 20260905203307 | 95 | 101 | 5.0 | 5.0 | 0.00 | 0.00 | 0.00 | 49 | 982.5 |
| 20260905202807 | 95 | 132 | 5.0 | 5.0 | 0.00 | 0.00 | 0.00 | 47 | 982.4 |
| 20260905202306 | 96 | 82 | 6.0 | 6.0 | 0.00 | 0.00 | 0.00 | 47 | 982.5 |
| 20260905201806 | 96 | 68 | 1.0 | 1.0 | 0.00 | 0.00 | 0.00 | 49 | 982.4 |
| 20260905201306 | 95 | 25 | 2.0 | 2.0 | 0.00 | 0.00 | 0.00 | 48 | 982.6 |
| 20260905200806 | 95 | 351 | 4.0 | 4.0 | 0.00 | 0.00 | 0.00 | 48 | 982.6 |
| 20260905200306 | 95 | 29 | 2.0 | 2.0 | 0.00 | 0.00 | 0.00 | 50 | 982.6 |
| 20260905195807 | 95 | 27 | 3.0 | 3.0 | 0.00 | 0.00 | 0.00 | 50 | 982.8 |
| 20260905195307 | 95 | 60 | 4.0 | 4.0 | 0.00 | 0.00 | 0.00 | 49 | 982.7 |
| 20260905194806 | 95 | 20 | 4.0 | 4.0 | 0.00 | 0.00 | 0.00 | 49 | 982.8 |
| 20260905194306 | 95 | 339 | 2.0 | 2.0 | 0.00 | 0.00 | 0.00 | 49 | 982.9 |
| 20260905193805 | 95 | 84 | 1.0 | 1.0 | 0.00 | 0.00 | 0.00 | 49 | 983.0 |
| 20260905193304 | 95 | 108 | 3.0 | 3.0 | 0.00 | 0.00 | 0.00 | 48 | 983.1 |
| 20260905192806 | 95 | 68 | 3.0 | 3.0 | 0.00 | 0.00 | 0.00 | 49 | 983.2 |
| 20260905192306 | 95 | 50 | 2.0 | 2.0 | 0.00 | 0.00 | 0.00 | 48 | 983.2 |
| 20260905191806 | 95 | 29 | 2.0 | 2.0 | 0.00 | 0.00 | 0.00 | 48 | 983.3 |
| 20260905191305 | 95 | 1 | 2.0 | 2.0 | 0.00 | 0.00 | 0.00 | 48 | 983.4 |
| 20260905190806 | 95 | 96 | 6.0 | 6.0 | 0.00 | 0.00 | 0.00 | 50 | 983.5 |
| 20260905190305 | 94 | 207 | 1.0 | 1.0 | 0.00 | 0.00 | 0.00 | 50 | 983.6 |
| 20260905185806 | 94 | 83 | 3.0 | 3.0 | 0.00 | 0.00 | 0.00 | 50 | 983.8 |
| 20260905185306 | 94 | 25 | 3.0 | 3.0 | 0.00 | 0.00 | 0.00 | 50 | 983.8 |
| 20260905184805 | 95 | 103 | 5.0 | 5.0 | 0.00 | 0.00 | 0.00 | 49 | 983.9 |
| 20260905184306 | 95 | 108 | 2.0 | 2.0 | 0.00 | 0.00 | 0.00 | 50 | 983.9 |
| 20260905183805 | 95 | 37 | 1.0 | 1.0 | 0.00 | 0.00 | 0.00 | 49 | 984.0 |
| 20260905183305 | 95 | 52 | 1.0 | 1.0 | 0.00 | 0.00 | 0.00 | 52 | 984.1 |
| 20260905182806 | 94 | 302 | 0.0 | 0.0 | 0.00 | 0.00 | 0.00 | 52 | 984.1 |
| 20260905182306 | 94 | 0.0 | 0.0 | 0.00 | 0.00 | 0.00 | 52 | 984.1 | |
| 20260905181806 | 94 | 352 | 2.0 | 2.0 | 0.00 | 0.00 | 0.00 | 52 | 984.1 |
| 20260905181305 | 94 | 48 | 2.0 | 2.0 | 0.00 | 0.00 | 0.00 | 51 | 984.1 |
| 20260905180806 | 94 | 87 | 4.0 | 4.0 | 0.00 | 0.00 | 0.00 | 53 | 984.0 |
| 20260905180305 | 93 | 93 | 2.0 | 2.0 | 0.00 | 0.00 | 0.00 | 53 | 984.2 |
| 20260905175806 | 93 | 94 | 6.0 | 6.0 | 0.00 | 0.00 | 0.00 | 53 | 984.3 |
| 20260905175306 | 93 | 343 | 2.0 | 2.0 | 0.00 | 0.00 | 0.00 | 52 | 984.2 |
| 20260905174805 | 94 | 34 | 7.0 | 7.0 | 0.00 | 0.00 | 0.00 | 52 | 984.3 |
| 20260905174305 | 94 | 109 | 6.0 | 6.0 | 0.00 | 0.00 | 0.00 | 52 | 984.3 |
| 20260905173805 | 94 | 112 | 8.0 | 8.0 | 0.00 | 0.00 | 0.00 | 51 | 984.3 |
| 20260905173305 | 94 | 122 | 1.0 | 1.0 | 0.00 | 0.00 | 0.00 | 52 | 984.3 |
| 20260905172805 | 93 | 74 | 3.0 | 3.0 | 0.00 | 0.00 | 0.00 | 53 | 984.5 |
| 20260905172305 | 93 | 38 | 4.0 | 4.0 | 0.00 | 0.00 | 0.00 | 55 | 984.5 |
| 20260905171804 | 93 | 49 | 5.0 | 5.0 | 0.00 | 0.00 | 0.00 | 54 | 984.6 |
| 20260905171307 | 93 | 98 | 3.0 | 3.0 | 0.00 | 0.00 | 0.00 | 54 | 984.6 |
| 20260905170805 | 93 | 66 | 3.0 | 3.0 | 0.00 | 0.00 | 0.00 | 58 | 984.7 |
| 20260905170306 | 92 | 6 | 3.0 | 3.0 | 0.00 | 0.00 | 0.00 | 57 | 984.8 |
| 20260905165806 | 92 | 41 | 2.0 | 2.0 | 0.00 | 0.00 | 0.00 | 58 | 985.0 |
| 20260905165306 | 92 | 251 | 1.0 | 1.0 | 0.00 | 0.00 | 0.00 | 57 | 985.0 |
| 20260905164805 | 92 | 360 | 7.0 | 7.0 | 0.00 | 0.00 | 0.00 | 58 | 985.2 |
| 20260905164306 | 92 | 21 | 2.0 | 2.0 | 0.00 | 0.00 | 0.00 | 59 | 985.2 |
| 20260905163805 | 92 | 353 | 2.0 | 2.0 | 0.00 | 0.00 | 0.00 | 59 | 985.1 |
| 20260905163306 | 92 | 22 | 1.0 | 1.0 | 0.00 | 0.00 | 0.00 | 60 | 985.3 |
| 20260905162805 | 91 | 327 | 1.0 | 1.0 | 0.00 | 0.00 | 0.00 | 60 | 985.3 |
| 20260905162306 | 91 | 321 | 1.0 | 1.0 | 0.00 | 0.00 | 0.00 | 60 | 985.3 |
| 20260905161805 | 90 | 39 | 1.0 | 1.0 | 0.00 | 0.00 | 0.00 | 62 | 985.4 |
| 20260905161305 | 90 | 77 | 5.0 | 5.0 | 0.00 | 0.00 | 0.00 | 63 | 985.6 |
| 20260905160805 | 90 | 315 | 2.0 | 2.0 | 0.00 | 0.00 | 0.00 | 64 | 985.7 |
| 20260905160304 | 89 | 3 | 4.0 | 4.0 | 0.00 | 0.00 | 0.00 | 64 | 985.7 |
| 20260905155806 | 89 | 304 | 4.0 | 4.0 | 0.00 | 0.00 | 0.00 | 62 | 985.7 |
| 20260905155306 | 89 | 340 | 4.0 | 4.0 | 0.00 | 0.00 | 0.00 | 65 | 985.6 |
| 20260905154804 | 88 | 43 | 1.0 | 1.0 | 0.00 | 0.00 | 0.00 | 66 | 985.6 |
| 20260905154305 | 88 | 6 | 1.0 | 1.0 | 0.00 | 0.00 | 0.00 | 65 | 985.6 |
| 20260905153805 | 88 | 6 | 2.0 | 2.0 | 0.00 | 0.00 | 0.00 | 67 | 985.7 |
| 20260905153306 | 88 | 333 | 1.0 | 1.0 | 0.00 | 0.00 | 0.00 | 69 | 985.6 |
| 20260905152806 | 87 | 344 | 3.0 | 3.0 | 0.00 | 0.00 | 0.00 | 68 | 985.6 |
| 20260905152306 | 87 | 328 | 0.0 | 0.0 | 0.00 | 0.00 | 0.00 | 71 | 985.7 |
| 20260905151805 | 86 | 321 | 1.0 | 1.0 | 0.00 | 0.00 | 0.00 | 72 | 985.9 |
| 20260905151305 | 86 | 347 | 3.0 | 3.0 | 0.00 | 0.00 | 0.00 | 72 | 985.7 |
| 20260905150804 | 85 | 302 | 1.0 | 1.0 | 0.00 | 0.00 | 0.00 | 73 | 985.6 |
| 20260905150305 | 85 | 293 | 3.0 | 3.0 | 0.00 | 0.00 | 0.00 | 75 | 985.7 |
| 20260905145806 | 85 | 4 | 2.0 | 2.0 | 0.00 | 0.00 | 0.00 | 75 | 985.6 |
| 20260905145306 | 85 | 330 | 2.0 | 2.0 | 0.00 | 0.00 | 0.00 | 76 | 985.5 |
| 20260905144805 | 85 | 326 | 1.0 | 1.0 | 0.00 | 0.00 | 0.00 | 76 | 985.7 |
| 20260905144304 | 84 | 328 | 2.0 | 2.0 | 0.00 | 0.00 | 0.00 | 76 | 985.7 |
| 20260905143806 | 84 | 331 | 2.0 | 2.0 | 0.00 | 0.00 | 0.00 | 77 | 985.6 |
| 20260905143305 | 85 | 0.0 | 0.0 | 0.00 | 0.00 | 0.00 | 76 | 985.6 | |
| 20260905142805 | 85 | 0.0 | 0.0 | 0.00 | 0.00 | 0.00 | 76 | 985.5 | |
| 20260905142306 | 84 | 0.0 | 0.0 | 0.00 | 0.00 | 0.00 | 76 | 985.7 | |
| 20260905141805 | 84 | 0.0 | 0.0 | 0.00 | 0.00 | 0.00 | 76 | 985.6 | |
| 20260905141305 | 84 | 0.0 | 0.0 | 0.00 | 0.00 | 0.00 | 76 | 985.7 | |
| 20260905140806 | 84 | 202 | 0.0 | 0.0 | 0.00 | 0.00 | 0.00 | 78 | 985.7 |
| 20260905140305 | 83 | 202 | 0.0 | 0.0 | 0.00 | 0.00 | 0.00 | 79 | 985.7 |
| 20260905135804 | 83 | 0.0 | 0.0 | 0.00 | 0.00 | 0.00 | 80 | 985.7 | |
| 20260905135307 | 82 | 0.0 | 0.0 | 0.00 | 0.00 | 0.00 | 81 | 985.7 | |
| 20260905134804 | 82 | 0.0 | 0.0 | 0.00 | 0.00 | 0.00 | 81 | 985.9 | |
| 20260905134305 | 81 | 0.0 | 0.0 | 0.00 | 0.00 | 0.00 | 82 | 985.8 | |
| 20260905133805 | 81 | 181 | 1.0 | 1.0 | 0.00 | 0.00 | 0.00 | 81 | 985.7 |
| 20260905133305 | 81 | 0.0 | 0.0 | 0.00 | 0.00 | 0.00 | 82 | 985.7 | |
| 20260905132805 | 80 | 0.0 | 0.0 | 0.00 | 0.00 | 0.00 | 83 | 985.7 | |
| 20260905132306 | 79 | 0.0 | 0.0 | 0.00 | 0.00 | 0.00 | 85 | 985.8 | |
| 20260905131805 | 79 | 59 | 3.0 | 3.0 | 0.00 | 0.00 | 0.00 | 85 | 985.8 |
| 20260905131305 | 78 | 52 | 2.0 | 2.0 | 0.00 | 0.00 | 0.00 | 87 | 985.9 |
| 20260905130804 | 77 | 50 | 2.0 | 2.0 | 0.00 | 0.00 | 0.00 | 88 | 985.8 |
| 20260905130306 | 77 | 73 | 2.0 | 2.0 | 0.00 | 0.00 | 0.00 | 89 | 985.9 |
| 20260905125805 | 76 | 30 | 3.0 | 3.0 | 0.00 | 0.00 | 0.00 | 90 | 985.9 |
| 20260905125306 | 76 | 36 | 3.0 | 3.0 | 0.00 | 0.00 | 0.00 | 90 | 985.7 |
| 20260905124806 | 76 | 14 | 3.0 | 3.0 | 0.00 | 0.00 | 0.00 | 89 | 985.9 |
| 20260905124305 | 76 | 8 | 4.0 | 4.0 | 0.00 | 0.00 | 0.00 | 89 | 985.7 |
| 20260905123804 | 77 | 5 | 3.0 | 3.0 | 0.00 | 0.00 | 0.00 | 87 | 985.7 |
| 20260905123306 | 78 | 6 | 2.0 | 2.0 | 0.00 | 0.00 | 0.00 | 86 | 985.5 |
| 20260905122806 | 78 | 325 | 1.0 | 1.0 | 0.00 | 0.00 | 0.00 | 83 | 985.5 |
| 20260905122307 | 80 | 283 | 2.0 | 2.0 | 0.00 | 0.00 | 0.00 | 77 | 985.5 |
| 20260905121804 | 80 | 138 | 1.0 | 1.0 | 0.00 | 0.00 | 0.00 | 76 | 985.5 |
| 20260905121305 | 80 | 0.0 | 0.0 | 0.00 | 0.00 | 0.00 | 77 | 985.4 | |
| 20260905120804 | 79 | 0.0 | 0.0 | 0.00 | 0.00 | 0.00 | 78 | 985.4 | |
| 20260905120305 | 79 | 138 | 1.0 | 1.0 | 0.00 | 0.00 | 0.00 | 79 | 985.2 |
| 20260905115806 | 79 | 61 | 3.0 | 3.0 | 0.00 | 0.00 | 0.00 | 80 | 985.3 |
| 20260905115306 | 80 | 122 | 1.0 | 1.0 | 0.00 | 0.00 | 0.00 | 77 | 985.2 |
| 20260905114805 | 80 | 134 | 4.0 | 4.0 | 0.00 | 0.00 | 0.00 | 77 | 985.2 |
| 20260905114305 | 80 | 120 | 2.0 | 2.0 | 0.00 | 0.00 | 0.00 | 76 | 985.1 |
| 20260905113805 | 80 | 124 | 2.0 | 2.0 | 0.00 | 0.00 | 0.00 | 77 | 985.1 |
| 20260905113305 | 80 | 126 | 2.0 | 2.0 | 0.00 | 0.00 | 0.00 | 76 | 985.0 |
| 20260905112804 | 80 | 152 | 3.0 | 3.0 | 0.00 | 0.00 | 0.00 | 75 | 984.9 |
| 20260905112306 | 80 | 153 | 2.0 | 2.0 | 0.00 | 0.00 | 0.00 | 75 | 984.9 |
| 20260905111805 | 80 | 153 | 3.0 | 3.0 | 0.00 | 0.00 | 0.00 | 75 | 984.8 |
| 20260905111306 | 80 | 149 | 4.0 | 4.0 | 0.00 | 0.00 | 0.00 | 74 | 984.7 |
| 20260905110805 | 81 | 157 | 4.0 | 4.0 | 0.00 | 0.00 | 0.00 | 74 | 984.7 |
| 20260905110305 | 81 | 147 | 2.0 | 2.0 | 0.00 | 0.00 | 0.00 | 74 | 984.6 |
| 20260905105805 | 81 | 149 | 4.0 | 4.0 | 0.00 | 0.00 | 0.00 | 74 | 984.4 |
| 20260905105306 | 81 | 151 | 6.0 | 6.0 | 0.00 | 0.00 | 0.00 | 74 | 984.5 |
| 20260905104805 | 81 | 125 | 4.0 | 4.0 | 0.00 | 0.00 | 0.00 | 74 | 984.4 |
| 20260905104305 | 81 | 141 | 4.0 | 4.0 | 0.00 | 0.00 | 0.00 | 75 | 984.5 |
| 20260905103805 | 80 | 135 | 6.0 | 6.0 | 0.00 | 0.00 | 0.00 | 75 | 984.4 |
| 20260905103305 | 80 | 140 | 6.0 | 6.0 | 0.00 | 0.00 | 0.00 | 76 | 984.4 |
| 20260905102804 | 79 | 143 | 5.0 | 5.0 | 0.00 | 0.00 | 0.00 | 77 | 984.4 |
| 20260905102306 | 79 | 141 | 5.0 | 5.0 | 0.00 | 0.00 | 0.00 | 78 | 984.5 |
| 20260905101806 | 79 | 141 | 6.0 | 6.0 | 0.00 | 0.00 | 0.00 | 78 | 984.2 |
| 20260905101304 | 79 | 145 | 6.0 | 6.0 | 0.00 | 0.00 | 0.00 | 79 | 984.3 |
| 20260905100805 | 78 | 155 | 9.0 | 9.0 | 0.00 | 0.00 | 0.00 | 79 | 984.2 |
| 20260905100305 | 78 | 151 | 10.0 | 10.0 | 0.00 | 0.00 | 0.00 | 80 | 984.2 |
| 20260905095805 | 78 | 167 | 7.0 | 7.0 | 0.00 | 0.00 | 0.00 | 80 | 984.2 |
| 20260905095306 | 78 | 167 | 8.0 | 8.0 | 0.00 | 0.00 | 0.00 | 80 | 984.2 |
| 20260905094805 | 78 | 155 | 8.0 | 8.0 | 0.00 | 0.00 | 0.00 | 79 | 984.2 |
| 20260905094305 | 79 | 152 | 8.0 | 8.0 | 0.00 | 0.00 | 0.00 | 79 | 984.3 |
| 20260905093805 | 79 | 145 | 7.0 | 7.0 | 0.00 | 0.00 | 0.00 | 79 | 984.2 |
| 20260905093306 | 79 | 151 | 6.0 | 6.0 | 0.00 | 0.00 | 0.00 | 79 | 984.1 |
| 20260905092805 | 79 | 158 | 8.0 | 8.0 | 0.00 | 0.00 | 0.00 | 79 | 984.1 |
| 20260905092306 | 80 | 160 | 6.0 | 6.0 | 0.00 | 0.00 | 0.00 | 78 | 984.2 |
| 20260905091805 | 80 | 160 | 7.0 | 7.0 | 0.00 | 0.00 | 0.00 | 78 | 984.2 |
| 20260905091305 | 80 | 171 | 6.0 | 6.0 | 0.00 | 0.00 | 0.00 | 78 | 984.2 |
| 20260905090805 | 80 | 160 | 9.0 | 9.0 | 0.00 | 0.00 | 0.00 | 75 | 984.2 |
| 20260905090304 | 79 | 143 | 5.0 | 5.0 | 0.00 | 0.00 | 0.00 | 79 | 984.0 |
| 20260905085806 | 82 | 144 | 7.0 | 7.0 | 0.00 | 0.00 | 0.00 | 74 | 984.1 |
| 20260905085306 | 83 | 116 | 5.0 | 5.0 | 0.00 | 0.00 | 0.00 | 69 | 984.1 |
| 20260905084805 | 83 | 117 | 4.0 | 4.0 | 0.00 | 0.00 | 0.00 | 69 | 984.1 |
| 20260905084306 | 82 | 115 | 5.0 | 5.0 | 0.00 | 0.00 | 0.00 | 72 | 984.2 |
| 20260905083805 | 82 | 116 | 3.0 | 3.0 | 0.00 | 0.00 | 0.00 | 70 | 984.1 |
| 20260905083304 | 83 | 124 | 3.0 | 3.0 | 0.00 | 0.00 | 0.00 | 70 | 984.1 |
| 20260905082805 | 83 | 136 | 5.0 | 5.0 | 0.00 | 0.00 | 0.00 | 68 | 984.1 |
| 20260905082307 | 82 | 116 | 3.0 | 3.0 | 0.00 | 0.00 | 0.00 | 68 | 984.1 |
| 20260905081806 | 80 | 67 | 4.0 | 4.0 | 0.00 | 0.00 | 0.00 | 78 | 984.2 |
| 20260905081305 | 81 | 64 | 6.0 | 6.0 | 0.00 | 0.00 | 0.00 | 78 | 984.1 |
| 20260905080805 | 82 | 68 | 4.0 | 4.0 | 0.00 | 0.00 | 0.00 | 73 | 984.0 |
| 20260905080304 | 81 | 81 | 4.0 | 4.0 | 0.00 | 0.00 | 0.00 | 72 | 984.1 |
| 20260905075805 | 82 | 65 | 5.0 | 5.0 | 0.00 | 0.00 | 0.00 | 76 | 984.0 |
| 20260905075306 | 82 | 78 | 4.0 | 4.0 | 0.00 | 0.00 | 0.00 | 69 | 984.1 |
| 20260905074805 | 82 | 97 | 5.0 | 5.0 | 0.00 | 0.00 | 0.00 | 72 | 984.1 |
| 20260905074305 | 82 | 96 | 5.0 | 5.0 | 0.00 | 0.00 | 0.00 | 72 | 984.2 |
| 20260905073805 | 82 | 97 | 6.0 | 6.0 | 0.00 | 0.00 | 0.00 | 72 | 984.2 |
| 20260905073305 | 81 | 86 | 6.0 | 6.0 | 0.00 | 0.00 | 0.00 | 74 | 984.2 |
| 20260905072804 | 81 | 84 | 7.0 | 7.0 | 0.00 | 0.00 | 0.00 | 79 | 984.2 |
| 20260905072306 | 81 | 82 | 7.0 | 7.0 | 0.00 | 0.00 | 0.00 | 79 | 984.1 |
| 20260905071805 | 82 | 84 | 8.0 | 8.0 | 0.00 | 0.00 | 0.00 | 77 | 984.2 |
| 20260905071305 | 83 | 92 | 8.0 | 8.0 | 0.00 | 0.00 | 0.00 | 73 | 984.2 |
| 20260905070805 | 84 | 88 | 7.0 | 7.0 | 0.00 | 0.00 | 0.00 | 67 | 984.1 |
| 20260905070305 | 84 | 88 | 9.0 | 9.0 | 0.00 | 0.00 | 0.00 | 65 | 984.1 |
| 20260905065805 | 83 | 86 | 9.0 | 9.0 | 0.00 | 0.00 | 0.00 | 69 | 984.2 |
| 20260905065307 | 82 | 84 | 9.0 | 9.0 | 0.00 | 0.00 | 0.00 | 75 | 984.2 |
| 20260905064804 | 82 | 82 | 9.0 | 9.0 | 0.00 | 0.00 | 0.00 | 76 | 984.4 |
| 20260905064305 | 81 | 89 | 9.0 | 9.0 | 0.00 | 0.00 | 0.00 | 75 | 984.5 |
| 20260905063805 | 80 | 83 | 9.0 | 9.0 | 0.00 | 0.00 | 0.00 | 82 | 984.4 |
| 20260905063305 | 79 | 72 | 10.0 | 10.0 | 0.00 | 0.00 | 0.00 | 82 | 984.5 |
| 20260905062806 | 80 | 66 | 9.0 | 9.0 | 0.00 | 0.00 | 0.00 | 81 | 984.5 |
| 20260905062306 | 81 | 68 | 8.0 | 8.0 | 0.00 | 0.00 | 0.00 | 79 | 984.5 |
| 20260905061805 | 82 | 77 | 9.0 | 9.0 | 0.00 | 0.00 | 0.00 | 77 | 984.6 |
| 20260905061305 | 84 | 73 | 6.0 | 6.0 | 0.00 | 0.00 | 0.00 | 69 | 984.6 |